Temp
11 11 10 10 9 8 8 8 8 8 8 9 10 10 10 10 10 10 10 10 10 10 11 12 12 12 13 12 13 12 11 12 13 12 9 8 8 7 7 7 8 9 9
11 10 10 8 7 8 8 7 7 8 8 9 10 10 10 10 10 11 11 11 12 12 12 13 13 13 13 13 13 11 12 11 10 9 8 8 7 7 7 8 10 11 10
11 10 8 7 7 7 7 7 7 8 8 9 9 11 10 10 11 10 11 11 12 12 12 12 12 11 11 11 11 10 10 9 8 7 7 8 8 8 8 10 10 10 11
10 9 8 8 8 8 8 7 8 8 8 9 10 9 10 10 9 9 10 11 11 12 12 12 11 11 10 11 10 9 9 9 9 8 8 9 9 8 8 10 11 11 11
11 9 8 7 8 7 7 7 8 8 8 9 9 10 9 10 8 7 9 9 10 11 10 10 9 8 9 8 9 8 9 8 8 9 10 12 12 11 11 12 12 13 12
9 9 8 7 8 7 7 8 8 8 8 8 8 9 9 9 7 7 8 8 9 9 9 10 10 8 8 8 9 9 9 9 9 10 12 12 12 11 12 12 12 12 12
10 10 9 8 8 8 7 7 7 7 7 7 7 8 8 7 7 7 8 8 8 9 8 8 9 9 9 9 9 10 10 9 10 10 12 12 13 12 12 12 12 11 11
10 9 9 9 8 8 9 9 8 8 8 7 7 7 7 7 7 7 7 7 7 7 8 8 9 10 10 9 9 12 12 12 11 12 12 12 11 11 10 11 12 12 12
10 9 9 10 10 10 10 10 9 9 8 8 8 9 9 8 8 8 8 8 9 9 10 10 10 11 10 10 11 13 14 14 13 13 13 12 12 12 12 10 13 14 15
11 10 10 11 10 10 10 10 10 10 10 11 11 10 10 9 9 9 9 9 11 12 13 11 11 11 11 11 11 12 14 12 12 13 13 13 13 14 13 12 13 13 14
10 10 11 11 11 10 11 11 11 11 11 11 11 12 12 11 10 11 11 11 12 14 15 14 12 12 12 12 12 12 12 12 13 13 14 14 14 14 14 14 14 14 14
11 11 12 12 12 11 11 11 11 11 12 12 13 13 13 13 12 12 13 13 13 14 15 14 13 13 13 13 13 14 14 13 14 14 15 16 16 16 16 15 15 15 14
11 12 12 13 12 12 12 14 15 14 14 14 14 13 13 14 12 11 11 13 14 14 14 14 14 14 14 14 15 15 14 15 16 16 16 15 16 16 17 16 16 16 16
12 12 13 13 12 13 14 14 13 13 14 14 14 14 15 14 11 10 11 13 13 15 14 14 15 15 15 15 16 16 16 16 16 17 17 17 17 17 17 16 16 16 17
13 14 14 14 14 14 12 13 13 11 11 12 11 13 13 13 10 11 11 12 12 13 14 16 16 16 16 16 16 16 16 15 16 16 16 16 16 17 16 16 16 16 16
12 14 14 15 15 15 13 12 11 11 12 11 11 11 12 11 11 11 11 12 13 14 15 16 16 16 16 16 16 16 15 15 15 15 16 16 16 16 16 16 16 15 15
13 13 14 15 16 15 16 15 13 11 11 11 12 11 11 11 11 12 12 12 14 15 15 15 15 15 15 15 15 15 15 14 14 15 15 15 15 15 16 16 16 15 14
13 15 15 15 16 16 17 17 17 16 16 13 12 12 12 11 11 12 13 14 15 15 15 15 15 15 15 14 14 14 14 14 14 14 14 14 14 15 15 15 15 14 14
15 16 15 16 16 17 17 17 17 16 16 15 14 13 13 13 12 13 13 14 14 14 14 14 14 14 14 14 14 14 14 14 13 14 14 14 14 14 14 14 14 14 13
14 15 15 16 18 18 17 17 17 17 16 15 14 13 13 15 14 14 13 13 13 13 13 14 14 14 14 13 13 13 14 13 13 13 13 14 13 14 14 14 14 14 13
15 15 16 18 17 17 17 17 17 17 17 16 15 13 12 12 14 14 13 13 12 12 12 13 14 13 13 13 13 13 13 13 12 12 13 13 13 13 13 14 13 13 13
16 18 18 17 17 17 16 17 17 17 16 16 16 14 13 14 14 13 13 12 12 12 12 12 13 12 12 12 12 12 11 10 10 11 12 13 13 12 13 13 13 12 12
17 18 18 18 17 16 17 17 16 16 16 16 16 15 15 14 14 13 13 12 12 11 11 11 11 11 10 10 10 10 9 8 8 10 10 12 12 11 12 12 12 12 12
16 18 18 18 17 17 17 17 17 16 16 16 15 15 14 14 13 13 12 12 12 11 11 11 10 10 9 9 8 8 6 7 7 8 8 12 12 11 12 12 11 12 11
16 17 17 18 18 17 17 17 17 16 16 15 15 15 14 14 13 13 12 12 12 11 11 10 10 9 9 7 6 6 7 7 7 8 8 10 11 10 10 11 11 11 10
16 16 17 17 16 17 17 17 17 16 16 15 15 14 14 14 13 13 12 11 11 11 11 10 10 9 8 6 6 6 7 7 7 8 9 10 10 10 9 10 10 10 10
Height
863 860 858 855 853 850 846 843 841 838 836 834 833 832 831 830 829 828 826 825 824 823 823 822 821 820 819 819 817 817 817 816 813 813 815 813 812 811 810 808 807 806 805
863 860 859 857 854 850 847 844 841 839 837 836 834 833 832 830 829 828 827 827 826 825 823 821 820 819 819 817 816 817 816 816 817 817 815 814 812 811 809 808 806 804 803
865 863 860 858 854 851 848 845 842 840 839 837 835 833 832 831 830 829 828 826 825 824 824 822 821 820 820 819 819 818 818 818 817 817 816 813 811 809 807 806 805 804 803
867 865 862 858 855 852 850 846 844 842 840 839 837 835 834 833 832 830 828 827 826 825 824 824 822 822 822 821 820 820 819 818 818 817 814 812 811 809 808 806 804 803 801
867 866 864 860 857 854 849 847 846 843 841 839 838 836 835 834 833 831 830 828 827 826 826 824 824 823 822 821 821 820 820 820 819 816 813 809 809 808 806 805 802 799 798
870 868 866 863 860 856 853 849 847 845 844 842 840 839 837 836 834 832 831 830 829 828 827 826 826 824 824 823 822 822 821 820 818 815 811 809 809 808 806 806 803 800 799
872 870 866 864 862 859 856 854 851 849 846 844 842 841 840 838 836 834 832 832 831 830 829 828 828 827 825 824 823 822 820 819 818 816 813 811 810 809 808 805 802 800 798
875 873 870 867 864 861 858 856 854 852 849 847 845 844 842 840 838 836 834 833 832 832 831 831 830 829 827 825 824 822 821 820 818 816 815 813 812 810 808 806 802 799 795
877 875 872 869 865 862 860 858 856 853 851 849 848 846 844 843 840 839 837 836 835 835 834 833 831 831 829 827 824 822 822 820 817 815 814 812 810 807 805 803 799 796 792
878 876 873 871 868 866 864 861 859 857 855 852 851 848 847 845 844 841 839 839 838 835 834 835 833 832 831 829 827 826 823 822 820 817 815 811 809 807 803 802 801 799 795
880 877 875 873 871 870 867 865 862 860 858 855 852 851 849 848 846 844 842 841 839 836 835 836 836 834 832 830 828 826 824 821 819 814 811 808 804 803 800 798 799 797 793
881 879 876 875 873 871 869 866 864 860 857 855 853 851 851 850 849 848 845 843 841 839 838 839 838 835 833 831 828 825 823 819 816 813 810 807 804 802 800 799 796 793 791
883 880 878 877 875 873 870 867 862 860 859 858 856 855 854 852 853 851 849 846 845 843 842 840 838 835 832 829 827 824 821 818 816 813 810 808 804 801 799 797 793 790 785
885 883 880 879 878 874 871 870 870 867 864 862 859 858 856 856 856 855 851 848 845 843 842 840 837 835 832 829 827 825 824 821 818 814 810 806 803 801 799 796 793 789 785
886 882 881 879 877 876 875 874 873 871 870 867 866 864 862 860 859 856 853 851 848 846 842 839 838 836 833 832 830 827 825 824 820 817 813 810 806 803 801 797 794 791 788
888 884 882 880 878 876 875 876 874 873 872 871 869 867 865 863 860 858 856 853 851 847 844 842 841 839 837 836 833 831 829 827 825 820 816 814 810 806 804 799 796 794 792
889 887 884 882 877 876 872 872 874 874 873 871 871 869 867 865 862 860 857 855 852 848 847 846 844 843 841 839 837 835 833 831 828 823 820 817 814 810 805 802 799 798 796
889 886 885 882 877 875 871 871 871 870 870 872 872 871 869 867 864 861 858 854 854 852 851 849 848 846 845 843 841 839 837 833 831 827 824 820 817 813 809 806 802 801 799
888 886 885 881 877 876 873 872 872 872 872 872 872 871 870 867 865 863 861 859 858 856 855 853 852 850 847 845 844 842 839 836 834 830 827 823 820 816 812 809 805 803 801
892 887 884 880 876 875 875 874 873 872 872 873 874 874 871 866 866 865 864 863 862 861 859 856 854 852 850 849 847 844 841 838 836 833 829 825 823 818 815 811 809 805 803
889 885 882 877 877 878 877 876 875 873 872 872 873 876 873 870 868 867 867 866 865 864 862 860 856 855 853 851 849 846 843 841 839 836 832 828 825 821 818 814 811 809 806
886 881 880 880 880 880 879 876 875 874 873 873 872 873 872 871 870 869 869 869 867 866 865 863 860 858 857 855 852 849 847 846 843 839 835 831 827 825 821 817 814 812 809
883 881 880 880 880 880 878 877 877 876 874 874 874 873 873 872 872 872 871 870 869 868 867 865 864 862 860 858 856 854 852 849 846 843 838 834 830 828 824 821 817 815 812
884 881 880 879 880 878 879 877 876 877 876 875 875 874 874 874 873 873 872 872 871 870 869 868 866 865 863 861 859 857 853 850 846 844 840 836 833 831 827 824 821 818 816
886 882 881 879 879 878 877 877 876 876 876 876 876 875 874 874 874 873 873 872 872 871 870 869 868 867 865 863 860 857 854 851 848 845 841 838 836 834 831 826 824 820 818
883 883 882 880 879 876 876 876 876 876 876 875 875 875 875 874 873 873 873 873 872 871 871 870 869 868 866 864 860 857 855 852 849 846 842 841 838 835 834 830 827 824 822
Wind_Speed
15 16 15 16 20 18 17 14 13 13 10 9 9 11 10 8 7 6 8 8 9 8 5 3 3 1 4 4 6 4 5 4 9 9 10 17 11 11 12 11 7 6 5
16 15 16 21 19 15 17 14 11 10 9 9 9 8 9 11 8 6 4 4 5 6 7 7 7 7 7 8 8 11 8 8 8 9 12 14 10 10 10 6 4 3 5
15 17 22 20 15 13 14 15 12 9 7 10 10 10 8 8 9 9 10 9 7 7 6 9 11 11 12 12 11 10 9 8 11 7 9 11 8 8 6 5 6 8 7
18 19 18 16 14 13 12 12 11 8 8 9 9 10 9 9 9 10 9 7 8 6 6 7 8 10 10 10 10 9 10 8 6 8 10 6 3 3 5 7 6 6 7
14 12 18 17 16 18 17 12 10 10 9 8 8 7 8 10 11 11 11 10 8 7 9 10 10 9 9 7 6 8 6 6 7 9 7 3 3 1 1 3 7 6 5
17 14 12 15 16 16 16 15 13 14 13 13 12 11 11 9 11 10 9 8 8 7 8 8 8 8 7 9 8 7 5 6 8 7 6 7 5 5 5 9 10 11 7
15 15 11 10 14 13 13 13 14 14 14 15 12 11 11 10 10 10 9 8 7 6 7 8 9 8 9 8 8 8 5 6 4 6 10 9 8 8 9 10 10 11 9
13 15 15 14 14 14 11 12 11 10 11 11 11 11 10 11 10 11 12 9 8 8 7 7 8 9 5 6 7 3 4 4 3 5 5 6 6 7 9 11 17 13 7
12 12 14 12 12 13 11 10 10 9 9 9 10 10 11 11 11 13 10 8 9 8 8 7 6 8 4 11 12 8 8 6 4 7 6 5 6 8 9 9 12 14 12
11 11 11 11 13 11 15 14 10 12 11 10 9 9 14 15 12 9 6 4 5 7 9 8 9 8 7 8 10 11 9 11 13 12 7 13 10 9 11 12 5 11 12
9 8 7 6 7 8 9 9 8 7 6 5 8 11 13 14 12 9 5 2 8 5 12 10 7 8 9 11 11 10 12 12 9 13 13 6 3 7 9 7 8 8 12
6 5 5 7 9 9 11 9 10 8 7 9 11 12 15 12 14 14 13 12 13 12 13 9 7 9 8 8 10 11 8 13 10 5 9 16 13 12 10 9 11 12 12
5 5 7 9 11 10 10 14 15 15 17 17 12 10 14 16 17 19 14 8 11 10 8 7 7 8 6 4 7 9 13 10 15 12 9 8 10 11 9 12 15 11 16
5 5 6 11 10 10 15 17 18 17 18 18 16 16 15 15 15 15 14 15 9 6 9 9 5 5 5 8 11 13 13 14 15 16 17 14 14 14 15 15 17 18 18
3 6 5 7 7 8 11 12 13 17 16 14 13 12 14 13 14 16 18 16 13 10 15 8 12 12 12 13 14 15 15 16 17 17 17 17 18 18 17 17 16 17 19
7 4 7 6 3 6 5 8 12 15 17 16 16 12 10 14 13 12 10 13 8 9 13 11 11 12 13 14 15 16 17 18 18 18 17 18 18 19 19 18 18 18 18
5 4 7 9 6 4 5 5 10 7 10 14 18 18 16 14 12 9 9 8 13 12 10 11 11 12 13 14 15 16 17 18 17 18 18 18 19 19 19 19 18 18 19
6 5 8 7 9 7 7 7 8 8 6 5 10 11 15 15 17 12 13 9 9 11 11 11 11 12 13 13 14 16 17 18 18 18 18 19 19 20 19 19 19 18 19
6 8 9 8 9 4 7 6 8 8 8 9 10 9 10 8 8 12 14 12 11 11 11 11 11 12 12 13 14 15 15 16 17 18 18 19 19 19 19 19 19 17 19
5 7 9 12 6 7 7 8 8 7 7 8 10 11 9 9 10 11 12 12 11 11 11 11 11 11 12 13 14 14 16 17 18 18 18 18 18 19 19 18 19 19 19
7 10 10 6 7 7 7 7 6 7 7 7 5 10 8 8 10 10 10 11 11 11 11 11 12 12 13 13 14 15 16 17 17 18 19 19 19 19 18 18 17 19 18
9 7 6 6 6 6 6 5 6 7 7 7 6 4 6 7 9 9 9 9 10 10 10 11 12 13 13 14 14 16 15 17 16 19 18 18 18 18 18 18 18 18 19
6 6 4 3 3 2 2 6 7 8 7 6 6 7 7 7 8 8 8 8 8 9 10 10 12 12 13 13 13 15 14 16 15 17 16 18 18 18 17 18 18 18 19
13 4 5 3 5 6 6 5 4 2 6 7 6 6 6 6 6 7 7 7 7 8 8 9 10 12 13 13 13 13 14 17 15 15 18 16 16 18 17 17 17 16 17
4 4 6 6 4 5 2 4 5 5 6 6 5 5 5 5 5 6 5 6 6 6 7 8 9 10 11 12 13 13 13 14 12 15 17 15 15 16 16 16 17 16 17
9 5 6 8 11 3 4 4 4 4 4 4 4 4 4 4 5 5 5 5 5 5 6 6 8 9 10 11 13 13 13 12 10 12 15 14 14 14 16 16 16 15 16
Wind_Direction
356 357 2 6 359 354 1 354 352 355 8 11 35 37 34 27 29 37 42 34 24 14 351 321 299 319 2 345 328 338 354 2 328 344 351 341 335 322 320 313 285 256 267
357 12 13 5 349 357 360 352 351 352 3 5 22 22 21 16 356 357 9 5 352 348 1 15 27 14 349 13 351 7 23 36 11 337 335 332 312 315 314 287 277 282 247
10 23 10 0 356 357 0 2 9 13 14 6 354 5 12 11 5 349 341 343 341 329 340 351 1 26 25 11 14 20 35 17 6 337 306 305 296 313 319 286 272 276 284
29 13 359 0 357 3 6 7 15 14 4 352 4 21 20 22 19 4 9 357 354 349 0 356 32 26 16 5 25 24 15 5 337 305 298 291 314 314 263 289 297 265 296
11 20 13 4 11 17 14 11 24 17 20 21 33 36 38 43 21 11 7 24 21 30 20 44 42 31 23 27 21 18 19 352 315 290 297 124 67 240 207 294 308 317 285
28 24 13 16 21 22 21 21 25 28 28 31 25 23 31 30 15 28 28 21 28 32 28 27 24 20 30 34 38 29 16 337 331 348 4 44 41 32 356 340 346 353 360
17 16 20 31 27 24 22 24 28 27 31 33 30 32 33 29 30 37 56 48 54 56 49 42 45 35 41 37 18 15 351 4 16 337 9 24 16 6 346 342 339 327 314
15 8 5 26 15 18 23 25 25 26 30 19 23 27 33 29 46 57 54 64 65 59 57 42 36 38 41 3 329 352 63 42 347 360 356 349 338 328 331 323 307 311 312
9 10 358 17 23 23 38 39 25 31 24 22 30 32 44 41 62 64 59 54 56 52 45 38 21 46 31 2 4 55 58 38 352 358 350 346 328 310 317 320 342 352 1
5 10 358 28 41 44 49 49 49 54 60 58 58 48 58 55 64 51 28 49 67 85 77 64 57 59 48 21 9 10 11 3 344 337 342 321 310 333 313 287 322 329 332
6 356 10 37 56 52 32 36 19 2 5 21 48 50 60 63 67 63 57 86 2 21 81 74 44 20 12 8 2 344 333 337 332 344 345 297 298 350 272 266 315 324 306
34 38 62 58 43 35 42 38 34 23 41 58 68 76 73 63 57 57 63 48 37 27 50 43 14 18 10 8 7 349 340 323 295 318 348 1 1 350 358 344 306 292 290
81 75 51 51 54 38 34 40 41 36 44 40 57 87 80 44 35 30 13 25 29 39 43 38 29 16 347 351 355 360 347 2 359 6 10 355 323 336 343 4 335 326 288
60 76 65 63 44 38 46 51 40 27 17 27 27 28 47 41 35 32 19 14 353 20 353 301 326 300 336 359 17 23 16 5 351 359 356 352 355 358 357 0 347 350 341
86 57 52 78 71 84 69 62 58 52 45 37 27 36 23 18 6 10 14 13 9 345 333 13 21 19 18 16 14 14 17 5 1 357 359 354 355 349 1 348 352 355 348
30 39 53 12 344 24 146 104 83 72 60 47 46 47 25 21 17 17 22 26 5 352 346 22 20 17 16 13 11 11 12 10 357 355 360 358 356 350 354 355 360 2 355
330 36 326 10 356 14 346 193 140 103 84 64 41 34 31 25 20 24 11 10 30 10 32 24 23 20 16 14 11 12 7 9 0 5 5 2 358 352 356 358 5 1 357
310 346 356 351 337 0 15 41 40 31 57 123 55 46 30 39 42 38 18 31 33 29 30 25 20 17 14 14 10 12 2 8 6 2 4 2 1 354 359 359 6 3 354
10 17 347 322 321 8 14 37 35 36 30 33 27 17 7 6 35 44 27 30 31 29 23 24 17 14 14 13 10 7 359 8 8 2 3 4 2 358 360 1 2 1 11
338 307 311 302 14 28 27 23 22 28 30 39 36 14 8 19 30 27 31 30 28 29 22 16 18 12 14 12 9 5 4 9 9 4 1 1 4 359 359 2 1 359 12
309 296 276 310 40 11 18 14 14 13 18 33 68 34 23 351 28 30 33 32 29 27 22 13 17 16 14 12 10 7 7 7 5 3 359 0 5 358 0 1 4 3 10
300 309 15 19 18 22 351 5 14 12 20 16 21 75 21 20 27 31 32 29 27 26 23 18 18 20 16 12 9 7 9 5 1 358 356 359 3 359 1 2 2 6 4
305 341 14 26 357 303 270 7 17 4 8 22 12 18 22 26 25 25 30 26 27 26 24 24 23 21 18 15 14 13 11 3 355 353 349 355 0 358 358 4 360 8 4
326 326 341 34 32 351 10 353 29 30 6 15 19 15 18 19 24 27 24 24 24 26 25 25 25 23 20 20 15 13 6 6 7 351 346 356 1 360 359 6 360 7 8
211 322 309 328 346 343 346 341 8 358 7 10 10 7 13 12 17 17 19 18 21 22 24 25 22 20 21 19 17 10 6 7 12 6 353 350 360 8 359 5 2 8 12
268 274 294 303 324 341 330 330 340 344 356 355 3 3 359 358 12 12 12 12 11 17 19 20 18 19 22 12 10 8 6 7 16 9 5 6 6 10 6 4 5 11 10